Weather History for Del Bajio, Mexico

Change the Weather History Date:

Saturday, January 11, 2014

  Actual Average Record
Temperature  
Mean Temperature 63 °F -  
Max Temperature 75 °F 72 °F 80 °F (2013)
Min Temperature 51 °F 41 °F 30 °F (1997)
Degree Days  
Heating Degree Days 2    
Growing Degree Days 13 (Base 50)    
Moisture  
Dew Point 41 °F    
Average Humidity 48    
Maximum Humidity 82    
Minimum Humidity 29    
Precipitation  
Precipitation 0.00 in - - ()
Sea Level Pressure  
Sea Level Pressure 30.15 in    
Wind  
Wind Speed 5 mph ()    
Max Wind Speed 14 mph    
Max Gust Speed -    
Visibility 9.2 miles    
Events      
Averages and records for this station are not official NWS values.
T = Trace of Precipitation, MM = Missing Value Source: Averaged Metar Reports

Daily Weather History Graph

Daily Weather History Graph

Search for Another Location

Airport:

Trip Planner

Search our weather history database for the weather conditions in past years. The results will help you decide how hot, cold, wet, or windy it might be!

Date:

Astronomy

Jan. 11, 2014 Rise Set
Actual Time 7:25 AM CST 6:22 PM CST
Civil Twilight 7:01 AM CST 6:46 PM CST
Nautical Twilight 6:33 AM CST 7:14 PM CST
Astronomical Twilight 6:06 AM CST 7:41 PM CST
Moon 3:03 PM CST (1/11) 3:38 AM CST (1/11)
Length of Visible Light 11h 45m
Length of Day
10h 57m
Waxing Gibbous, 83% of the Moon is Illuminated
Jan 11
Waxing Gibbous
Jan 15
Full
Jan 23
Last Quarter
Jan 30
New
Feb 6
First Quarter

Hourly Weather History & Observations

Time (CST) Temp. Dew Point Humidity Pressure Visibility Wind Dir Wind Speed Gust Speed Precip Events Conditions
1:55 AM 51.8 °F 46.4 °F 82% 30.27 in 8.0 mi NNE 5.8 mph - N/A   Mostly Cloudy
5:42 AM 51.8 °F 44.6 °F 76% 29.96 in 8.0 mi ENE 4.6 mph - N/A   Mostly Cloudy
6:44 AM 51.8 °F 41.0 °F 67% 30.27 in 8.0 mi NNE 5.8 mph - N/A   Mostly Cloudy
7:47 AM 51.8 °F 44.6 °F 76% 30.30 in 10.0 mi Calm Calm - N/A   Mostly Cloudy
8:46 AM 55.4 °F 44.6 °F 67% 30.03 in 10.0 mi Calm Calm - N/A   Mostly Cloudy
9:46 AM 62.6 °F 42.8 °F 48% 30.32 in 10.0 mi Calm Calm - N/A   Mostly Cloudy
10:40 AM 68.0 °F 42.8 °F 40% 30.32 in 10.0 mi Calm Calm - N/A   Mostly Cloudy
11:42 AM 69.8 °F 42.8 °F 38% 30.00 in 10.0 mi WNW 5.8 mph - N/A   Mostly Cloudy
12:47 PM 71.6 °F 42.8 °F 35% 30.27 in 10.0 mi West 9.2 mph - N/A   Mostly Cloudy
1:41 PM 75.2 °F 41.0 °F 29% 30.24 in 10.0 mi Calm Calm - N/A   Mostly Cloudy
2:40 PM 73.4 °F 41.0 °F 31% 29.91 in 10.0 mi NNW 6.9 mph - N/A   Mostly Cloudy
3:44 PM 75.2 °F 41.0 °F 29% 30.18 in 10.0 mi NW 10.4 mph - N/A   Mostly Cloudy
4:47 PM 69.8 °F 37.4 °F 31% 30.18 in 10.0 mi East 13.8 mph - N/A   Mostly Cloudy
5:55 PM 69.8 °F 37.4 °F 31% 29.88 in 10.0 mi ENE 10.4 mph - N/A   Overcast
7:03 PM 64.4 °F 39.2 °F 40% 30.21 in 8.0 mi ESE 9.2 mph - N/A   Overcast
7:50 PM 60.8 °F 37.4 °F 42% 30.21 in 10.0 mi ENE 13.8 mph - N/A   Mostly Cloudy
8:48 PM 59.0 °F 35.6 °F 42% 30.01 in 8.0 mi ENE 6.9 mph - N/A   Mostly Cloudy
9:46 PM 59.0 °F 37.4 °F 45% 30.27 in 8.0 mi ENE 6.9 mph - N/A   Mostly Cloudy
10:43 PM 57.2 °F 39.2 °F 51% 30.27 in 8.0 mi ENE 10.4 mph - N/A   Scattered Clouds
11:48 PM 57.2 °F 39.2 °F 51% 29.96 in 8.0 mi ENE 10.4 mph - N/A   Scattered Clouds